Location: Unspecified
(0.0000°N, 0.0000°E)
Time: 05:36:55
(UTC+00:00)

Eole - Pass Details

Date: 26 May 2026
Orbit: 620 x 764 km, 50.1° (Epoch: 8 June)

Event Time Altitude Azimuth Distance (km) Brightness Sun altitude
Rises 18:20:42 0° 218° (SW) 3,154 10.4 -5.5°
Reaches altitude 10° 18:23:09 10° 218° (SW) 2,210 9.6 -6.1°
Maximum altitude 18:28:17 86° 307° (NW) 705 6.9 -7.3°
Drops below altitude 10° 18:33:10 10° 35° (NE) 2,105 9.1 -8.4°
Sets 18:35:27 0° 36° (NE) 2,994 9.9 -8.9°
